| time (UTC) | temp C | wind direction | speed KPH | gust KPH | rain 1hr cm | rain 24hr cm | rain mn cm | humidity % | barometer mb |
| 20260506070346 | 24 | 87 | 3.2 | 4.8 | 0.00 | 0.00 | 0.00 | 88 | 1008.9 |
| 20260506062323 | 24 | 187 | 1.6 | 4.8 | 0.00 | 0.00 | 0.00 | 88 | 1009.0 |
| 20260506061819 | 24 | 67 | 3.2 | 4.8 | 0.00 | 0.00 | 0.00 | 88 | 1009.1 |
| 20260506061316 | 24 | 68 | 1.6 | 4.8 | 0.00 | 0.00 | 0.00 | 89 | 1008.9 |
| 20260506060814 | 24 | 104 | 1.6 | 3.2 | 0.00 | 0.00 | 0.00 | 88 | 1008.9 |
| 20260506060312 | 24 | 112 | 3.2 | 6.4 | 0.00 | 0.00 | 0.00 | 89 | 1009.0 |
| 20260506051243 | 24 | 80 | 1.6 | 4.8 | 0.00 | 0.00 | 0.00 | 88 | 1009.0 |
| 20260506050741 | 24 | 78 | 1.6 | 4.8 | 0.00 | 0.00 | 0.00 | 88 | 1008.9 |
| 20260506050238 | 25 | 88 | 3.2 | 3.2 | 0.00 | 0.00 | 0.00 | 88 | 1009.1 |
| 20260506044729 | 25 | 103 | 0.0 | 4.8 | 0.00 | 0.00 | 0.00 | 88 | 1009.0 |
| 20260506044226 | 25 | 77 | 3.2 | 3.2 | 0.00 | 0.00 | 0.00 | 88 | 1008.9 |
| 20260506043724 | 25 | 99 | 3.2 | 4.8 | 0.00 | 0.00 | 0.00 | 88 | 1009.2 |
| 20260506043221 | 25 | 103 | 0.0 | 3.2 | 0.00 | 0.00 | 0.00 | 88 | 1009.1 |
| 20260506042720 | 25 | 134 | 0.0 | 3.2 | 0.00 | 0.00 | 0.00 | 88 | 1008.9 |
| 20260506042218 | 25 | 126 | 3.2 | 3.2 | 0.00 | 0.00 | 0.00 | 88 | 1008.9 |
| 20260506041716 | 25 | 101 | 1.6 | 3.2 | 0.00 | 0.00 | 0.00 | 88 | 1009.1 |
| 20260506041213 | 25 | 98 | 3.2 | 3.2 | 0.00 | 0.00 | 0.00 | 87 | 1008.7 |
| 20260506040710 | 25 | 218 | 0.0 | 4.8 | 0.00 | 0.00 | 0.00 | 87 | 1008.9 |
| 20260506040207 | 25 | 141 | 0.0 | 3.2 | 0.00 | 0.00 | 0.00 | 87 | 1008.7 |
| 20260506035703 | 25 | 88 | 3.2 | 3.2 | 0.00 | 0.00 | 0.00 | 87 | 1008.7 |
| 20260506035201 | 25 | 69 | 3.2 | 3.2 | 0.00 | 0.00 | 0.00 | 86 | 1008.6 |
| 20260506034657 | 25 | 105 | 1.6 | 3.2 | 0.00 | 0.00 | 0.00 | 86 | 1008.5 |
| 20260506034155 | 25 | 96 | 3.2 | 4.8 | 0.00 | 0.00 | 0.00 | 86 | 1008.6 |
| 20260506033652 | 25 | 86 | 1.6 | 3.2 | 0.00 | 0.00 | 0.00 | 86 | 1008.5 |
| 20260506033149 | 25 | 62 | 1.6 | 4.8 | 0.00 | 0.00 | 0.00 | 86 | 1008.5 |
| 20260506032646 | 25 | 99 | 0.0 | 3.2 | 0.00 | 0.00 | 0.00 | 86 | 1008.4 |
| 20260506032143 | 25 | 121 | 1.6 | 3.2 | 0.00 | 0.00 | 0.00 | 86 | 1008.3 |
| 20260506031640 | 25 | 55 | 1.6 | 3.2 | 0.00 | 0.00 | 0.00 | 86 | 1008.5 |
| 20260506031136 | 25 | 94 | 1.6 | 3.2 | 0.00 | 0.00 | 0.00 | 86 | 1008.2 |
| 20260506030636 | 25 | 98 | 1.6 | 3.2 | 0.00 | 0.00 | 0.00 | 86 | 1008.1 |
| 20260506030132 | 25 | 59 | 3.2 | 3.2 | 0.00 | 0.00 | 0.00 | 86 | 1008.1 |
| 20260506025629 | 25 | 84 | 3.2 | 3.2 | 0.00 | 0.00 | 0.00 | 85 | 1008.2 |
| 20260506025125 | 25 | 83 | 1.6 | 3.2 | 0.00 | 0.00 | 0.00 | 84 | 1007.9 |
| 20260506024623 | 25 | 178 | 0.0 | 4.8 | 0.00 | 0.00 | 0.00 | 84 | 1007.9 |
| 20260506024118 | 25 | 68 | 1.6 | 6.4 | 0.00 | 0.00 | 0.00 | 84 | 1007.9 |
| 20260506023615 | 25 | 67 | 3.2 | 3.2 | 0.00 | 0.00 | 0.00 | 84 | 1007.6 |
| 20260506023112 | 25 | 92 | 1.6 | 3.2 | 0.00 | 0.00 | 0.00 | 84 | 1007.6 |
| 20260506022610 | 25 | 79 | 0.0 | 1.6 | 0.00 | 0.00 | 0.00 | 84 | 1007.6 |
| 20260506022107 | 25 | 102 | 3.2 | 3.2 | 0.00 | 0.00 | 0.00 | 84 | 1007.3 |
| 20260506021605 | 25 | 93 | 1.6 | 3.2 | 0.00 | 0.00 | 0.00 | 84 | 1007.1 |
| 20260506021101 | 25 | 89 | 3.2 | 3.2 | 0.00 | 0.00 | 0.00 | 83 | 1007.1 |
| 20260506020559 | 25 | 99 | 0.0 | 3.2 | 0.00 | 0.00 | 0.00 | 83 | 1006.9 |
| 20260506020056 | 25 | 102 | 1.6 | 1.6 | 0.00 | 0.00 | 0.00 | 83 | 1007.0 |
| 20260506015554 | 25 | 91 | 1.6 | 1.6 | 0.00 | 0.00 | 0.00 | 82 | 1007.0 |
| 20260506015050 | 25 | 110 | 0.0 | 3.2 | 0.00 | 0.00 | 0.00 | 82 | 1006.8 |
| 20260506014548 | 26 | 80 | 1.6 | 3.2 | 0.00 | 0.00 | 0.00 | 82 | 1006.9 |
| 20260506014043 | 26 | 87 | 1.6 | 3.2 | 0.00 | 0.00 | 0.00 | 82 | 1006.7 |
| 20260506013542 | 26 | 89 | 1.6 | 3.2 | 0.00 | 0.00 | 0.00 | 81 | 1006.8 |
| 20260506013038 | 26 | 91 | 1.6 | 3.2 | 0.00 | 0.00 | 0.00 | 81 | 1006.8 |
| 20260506012534 | 26 | 86 | 1.6 | 3.2 | 0.00 | 0.00 | 0.00 | 81 | 1006.9 |
| 20260506012031 | 26 | 103 | 1.6 | 3.2 | 0.00 | 0.00 | 0.00 | 80 | 1006.6 |
| 20260506011529 | 26 | 87 | 1.6 | 3.2 | 0.00 | 0.00 | 0.00 | 80 | 1006.9 |
| 20260506011025 | 26 | 84 | 1.6 | 3.2 | 0.00 | 0.00 | 0.00 | 79 | 1006.8 |
| 20260506010525 | 26 | 114 | 3.2 | 3.2 | 0.00 | 0.00 | 0.00 | 79 | 1006.9 |
| 20260506010020 | 27 | 89 | 1.6 | 3.2 | 0.00 | 0.00 | 0.00 | 79 | 1006.8 |
| 20260506005518 | 27 | 87 | 1.6 | 3.2 | 0.00 | 0.00 | 0.00 | 78 | 1006.7 |
| 20260506005013 | 27 | 108 | 1.6 | 3.2 | 0.00 | 0.00 | 0.00 | 77 | 1006.8 |
| 20260506004511 | 27 | 67 | 0.0 | 1.6 | 0.00 | 0.00 | 0.00 | 77 | 1006.8 |
| 20260506004008 | 27 | 92 | 1.6 | 3.2 | 0.00 | 0.00 | 0.00 | 76 | 1006.9 |
| 20260506003504 | 27 | 94 | 0.0 | 3.2 | 0.00 | 0.00 | 0.00 | 77 | 1006.8 |
| 20260506003000 | 27 | 71 | 0.0 | 1.6 | 0.00 | 0.00 | 0.00 | 75 | 1006.9 |
| 20260506002456 | 27 | 150 | 0.0 | 3.2 | 0.00 | 0.00 | 0.00 | 73 | 1006.9 |
| 20260506001952 | 27 | 140 | 1.6 | 3.2 | 0.00 | 0.00 | 0.00 | 74 | 1006.9 |
| 20260506001449 | 28 | 61 | 3.2 | 3.2 | 0.00 | 0.00 | 0.00 | 73 | 1006.7 |
| 20260506000946 | 28 | 61 | 1.6 | 3.2 | 0.00 | 0.00 | 0.00 | 74 | 1006.5 |
| 20260506000445 | 28 | 114 | 1.6 | 4.8 | 0.00 | 0.00 | 0.00 | 73 | 1006.7 |
| 20260505235940 | 28 | 115 | 1.6 | 3.2 | 0.00 | 0.00 | 0.00 | 72 | 1006.4 |
| 20260505235438 | 28 | 83 | 1.6 | 3.2 | 0.00 | 0.00 | 0.00 | 72 | 1006.5 |
| 20260505234935 | 28 | 60 | 1.6 | 4.8 | 0.00 | 0.00 | 0.00 | 71 | 1006.5 |
| 20260505234433 | 28 | 96 | 0.0 | 3.2 | 0.00 | 0.00 | 0.00 | 71 | 1006.5 |
| 20260505233929 | 28 | 134 | 0.0 | 3.2 | 0.00 | 0.00 | 0.00 | 70 | 1006.3 |
| 20260505233427 | 28 | 42 | 6.4 | 6.4 | 0.00 | 0.00 | 0.00 | 71 | 1006.4 |
| 20260505232924 | 28 | 72 | 1.6 | 4.8 | 0.00 | 0.00 | 0.00 | 70 | 1006.4 |
| 20260505232422 | 28 | 100 | 3.2 | 6.4 | 0.00 | 0.00 | 0.00 | 69 | 1006.4 |
| 20260505231918 | 28 | 68 | 6.4 | 6.4 | 0.00 | 0.00 | 0.00 | 68 | 1006.3 |
| 20260505231416 | 28 | 99 | 3.2 | 3.2 | 0.00 | 0.00 | 0.00 | 69 | 1006.4 |
| 20260505230914 | 28 | 83 | 3.2 | 4.8 | 0.00 | 0.00 | 0.00 | 68 | 1006.5 |
| 20260505230412 | 28 | 43 | 0.0 | 3.2 | 0.00 | 0.00 | 0.00 | 68 | 1006.3 |
| 20260505225908 | 28 | 121 | 3.2 | 3.2 | 0.00 | 0.00 | 0.00 | 68 | 1006.2 |
| 20260505225405 | 29 | 63 | 3.2 | 3.2 | 0.00 | 0.00 | 0.00 | 69 | 1006.2 |
| 20260505224900 | 29 | 121 | 1.6 | 4.8 | 0.00 | 0.00 | 0.00 | 68 | 1006.3 |
| 20260505224358 | 29 | 202 | 1.6 | 3.2 | 0.00 | 0.00 | 0.00 | 68 | 1006.4 |
| 20260505223854 | 29 | 61 | 4.8 | 4.8 | 0.00 | 0.00 | 0.00 | 68 | 1006.1 |
| 20260505223351 | 29 | 92 | 3.2 | 3.2 | 0.00 | 0.00 | 0.00 | 69 | 1006.3 |
| 20260505222847 | 29 | 190 | 3.2 | 4.8 | 0.00 | 0.00 | 0.00 | 68 | 1006.2 |
| 20260505222344 | 29 | 124 | 1.6 | 4.8 | 0.00 | 0.00 | 0.00 | 68 | 1006.0 |
| 20260505221841 | 29 | 81 | 3.2 | 6.4 | 0.00 | 0.00 | 0.00 | 68 | 1006.2 |
| 20260505221338 | 30 | 67 | 3.2 | 4.8 | 0.00 | 0.00 | 0.00 | 66 | 1006.3 |
| 20260505220835 | 30 | 183 | 1.6 | 6.4 | 0.00 | 0.00 | 0.00 | 66 | 1006.3 |
| 20260505220331 | 30 | 86 | 0.0 | 6.4 | 0.00 | 0.00 | 0.00 | 66 | 1006.2 |
| 20260505215830 | 30 | 24 | 4.8 | 6.4 | 0.00 | 0.00 | 0.00 | 65 | 1006.3 |
| 20260505215327 | 30 | 23 | 6.4 | 9.7 | 0.00 | 0.00 | 0.00 | 65 | 1006.3 |
| 20260505214825 | 29 | 90 | 3.2 | 6.4 | 0.00 | 0.00 | 0.00 | 65 | 1006.7 |
| 20260505214322 | 29 | 102 | 3.2 | 8.0 | 0.00 | 0.00 | 0.00 | 65 | 1006.9 |
| 20260505213819 | 30 | 54 | 3.2 | 4.8 | 0.00 | 0.00 | 0.00 | 65 | 1006.6 |
| 20260505213317 | 29 | 122 | 0.0 | 4.8 | 0.00 | 0.00 | 0.00 | 65 | 1006.7 |
| 20260505212813 | 29 | 175 | 0.0 | 3.2 | 0.00 | 0.00 | 0.00 | 67 | 1007.0 |
| 20260505212310 | 29 | 138 | 0.0 | 3.2 | 0.00 | 0.00 | 0.00 | 66 | 1007.1 |
| 20260505211806 | 30 | 76 | 1.6 | 4.8 | 0.00 | 0.00 | 0.00 | 66 | 1006.9 |
| 20260505211304 | 30 | 15 | 0.0 | 8.0 | 0.00 | 0.00 | 0.00 | 65 | 1006.7 |
| 20260505210800 | 30 | 63 | 0.0 | 6.4 | 0.00 | 0.00 | 0.00 | 65 | 1006.9 |
| 20260505210257 | 30 | 108 | 0.0 | 6.4 | 0.00 | 0.00 | 0.00 | 64 | 1007.2 |
| 20260505205754 | 30 | 150 | 1.6 | 4.8 | 0.00 | 0.00 | 0.00 | 64 | 1006.9 |
| 20260505205253 | 30 | 131 | 3.2 | 4.8 | 0.00 | 0.00 | 0.00 | 63 | 1007.0 |
| 20260505204749 | 31 | 93 | 1.6 | 6.4 | 0.00 | 0.00 | 0.00 | 63 | 1007.1 |
| 20260505204247 | 31 | 169 | 0.0 | 4.8 | 0.00 | 0.00 | 0.00 | 62 | 1007.1 |
| 20260505203744 | 30 | 76 | 0.0 | 9.7 | 0.00 | 0.00 | 0.00 | 64 | 1007.1 |
| 20260505203241 | 30 | 87 | 1.6 | 4.8 | 0.00 | 0.00 | 0.00 | 65 | 1007.4 |
| 20260505202736 | 30 | 116 | 3.2 | 3.2 | 0.00 | 0.00 | 0.00 | 64 | 1007.5 |
| 20260505202233 | 30 | 59 | 4.8 | 6.4 | 0.00 | 0.00 | 0.00 | 64 | 1007.6 |
| 20260505201729 | 30 | 177 | 3.2 | 4.8 | 0.00 | 0.00 | 0.00 | 64 | 1007.8 |
| 20260505201227 | 30 | 76 | 1.6 | 6.4 | 0.00 | 0.00 | 0.00 | 64 | 1007.9 |
| 20260505200725 | 30 | 58 | 0.0 | 4.8 | 0.00 | 0.00 | 0.00 | 65 | 1007.9 |
| 20260505200222 | 29 | 98 | 1.6 | 6.4 | 0.00 | 0.00 | 0.00 | 66 | 1008.0 |
| 20260505195717 | 29 | 225 | 1.6 | 6.4 | 0.00 | 0.00 | 0.00 | 67 | 1007.9 |
| 20260505195215 | 29 | 121 | 1.6 | 4.8 | 0.00 | 0.00 | 0.00 | 67 | 1008.1 |
| 20260505194712 | 28 | 85 | 3.2 | 3.2 | 0.00 | 0.00 | 0.00 | 70 | 1008.2 |
| 20260505194209 | 28 | 93 | 3.2 | 4.8 | 0.00 | 0.00 | 0.00 | 69 | 1008.1 |
| 20260505193704 | 29 | 91 | 3.2 | 4.8 | 0.00 | 0.00 | 0.00 | 68 | 1008.3 |
| 20260505193202 | 29 | 151 | 3.2 | 4.8 | 0.00 | 0.00 | 0.00 | 67 | 1008.4 |
| 20260505192700 | 28 | 95 | 1.6 | 4.8 | 0.00 | 0.00 | 0.00 | 68 | 1008.3 |
| 20260505192158 | 28 | 55 | 0.0 | 4.8 | 0.00 | 0.00 | 0.00 | 71 | 1008.4 |
| 20260505191656 | 28 | 130 | 0.0 | 6.4 | 0.00 | 0.00 | 0.00 | 70 | 1008.3 |
| 20260505191154 | 28 | 65 | 1.6 | 4.8 | 0.00 | 0.00 | 0.00 | 69 | 1008.2 |
| 20260505190649 | 28 | 78 | 1.6 | 3.2 | 0.00 | 0.00 | 0.00 | 69 | 1008.3 |
| 20260505190149 | 29 | 11 | 4.8 | 8.0 | 0.00 | 0.00 | 0.00 | 67 | 1008.2 |
| 20260505185646 | 28 | 21 | 1.6 | 3.2 | 0.00 | 0.00 | 0.00 | 69 | 1008.3 |
| 20260505185143 | 27 | 171 | 0.0 | 4.8 | 0.00 | 0.00 | 0.00 | 71 | 1008.5 |
| 20260505184639 | 28 | 117 | 1.6 | 3.2 | 0.00 | 0.00 | 0.00 | 72 | 1008.6 |
| 20260505184136 | 27 | 59 | 3.2 | 4.8 | 0.00 | 0.00 | 0.00 | 73 | 1008.7 |
| 20260505183633 | 27 | 57 | 3.2 | 3.2 | 0.00 | 0.00 | 0.00 | 75 | 1008.7 |
| 20260505183131 | 26 | 104 | 3.2 | 4.8 | 0.00 | 0.00 | 0.00 | 77 | 1009.0 |
| 20260505182627 | 26 | 95 | 4.8 | 4.8 | 0.00 | 0.00 | 0.00 | 76 | 1009.0 |
| 20260505182124 | 26 | 106 | 3.2 | 4.8 | 0.00 | 0.00 | 0.00 | 76 | 1009.0 |
| 20260505181620 | 26 | 47 | 8.0 | 8.0 | 0.00 | 0.00 | 0.00 | 76 | 1009.1 |
| 20260505181118 | 26 | 53 | 3.2 | 8.0 | 0.00 | 0.00 | 0.00 | 76 | 1009.0 |
| 20260505180614 | 26 | 104 | 1.6 | 4.8 | 0.00 | 0.00 | 0.00 | 77 | 1009.1 |
| 20260505180111 | 26 | 75 | 1.6 | 4.8 | 0.00 | 0.00 | 0.00 | 78 | 1009.1 |
| 20260505175607 | 25 | 59 | 3.2 | 4.8 | 0.00 | 0.00 | 0.00 | 79 | 1009.2 |
| 20260505175104 | 25 | 110 | 1.6 | 6.4 | 0.00 | 0.00 | 0.00 | 78 | 1009.3 |
| 20260505174600 | 25 | 88 | 6.4 | 6.4 | 0.00 | 0.00 | 0.00 | 79 | 1009.3 |
| 20260505174056 | 25 | 96 | 1.6 | 4.8 | 0.00 | 0.00 | 0.00 | 78 | 1009.6 |
| 20260505173553 | 25 | 45 | 0.0 | 4.8 | 0.00 | 0.00 | 0.00 | 79 | 1009.3 |
| 20260505173050 | 25 | 73 | 3.2 | 6.4 | 0.00 | 0.00 | 0.00 | 80 | 1009.3 |
| 20260505172548 | 25 | 66 | 4.8 | 8.0 | 0.00 | 0.00 | 0.00 | 79 | 1009.6 |
| 20260505172044 | 25 | 82 | 3.2 | 8.0 | 0.00 | 0.00 | 0.00 | 79 | 1009.5 |
| 20260505171539 | 25 | 68 | 0.0 | 6.4 | 0.00 | 0.00 | 0.00 | 80 | 1009.4 |
| 20260505171036 | 25 | 110 | 3.2 | 6.4 | 0.00 | 0.00 | 0.00 | 80 | 1009.5 |
| 20260505170533 | 25 | 99 | 0.0 | 4.8 | 0.00 | 0.00 | 0.00 | 80 | 1009.5 |
| 20260505170029 | 25 | 78 | 1.6 | 4.8 | 0.00 | 0.00 | 0.00 | 80 | 1009.6 |
| 20260505165525 | 24 | 94 | 3.2 | 6.4 | 0.00 | 0.00 | 0.00 | 81 | 1009.5 |
| 20260505165020 | 24 | 66 | 9.7 | 9.7 | 0.00 | 0.00 | 0.00 | 82 | 1009.5 |
| 20260505164517 | 23 | 65 | 4.8 | 4.8 | 0.00 | 0.00 | 0.00 | 83 | 1009.6 |
| 20260505164015 | 23 | 150 | 3.2 | 6.4 | 0.00 | 0.00 | 0.00 | 83 | 1009.6 |
| 20260505163513 | 23 | 96 | 3.2 | 4.8 | 0.00 | 0.00 | 0.00 | 84 | 1009.5 |
| 20260505163010 | 23 | 88 | 4.8 | 4.8 | 0.00 | 0.00 | 0.00 | 84 | 1009.4 |
| 20260505162503 | 23 | 95 | 3.2 | 4.8 | 0.00 | 0.00 | 0.00 | 85 | 1009.5 |
| 20260505162000 | 23 | 74 | 0.0 | 3.2 | 0.00 | 0.00 | 0.00 | 86 | 1009.4 |
| 20260505161456 | 23 | 88 | 1.6 | 4.8 | 0.00 | 0.00 | 0.00 | 86 | 1009.7 |
| 20260505160953 | 22 | 48 | 1.6 | 4.8 | 0.00 | 0.00 | 0.00 | 87 | 1009.5 |
| 20260505160452 | 22 | 66 | 3.2 | 6.4 | 0.00 | 0.00 | 0.00 | 87 | 1009.8 |
| 20260505152928 | 22 | 101 | 3.2 | 6.4 | 0.00 | 0.00 | 0.00 | 89 | 1009.8 |
| 20260505152426 | 22 | 111 | 3.2 | 4.8 | 0.00 | 0.00 | 0.00 | 88 | 1009.7 |
| 20260505151925 | 22 | 120 | 3.2 | 6.4 | 0.00 | 0.00 | 0.00 | 89 | 1009.6 |
| 20260505151421 | 22 | 86 | 4.8 | 6.4 | 0.00 | 0.00 | 0.00 | 89 | 1009.5 |
| 20260505150919 | 22 | 59 | 3.2 | 8.0 | 0.00 | 0.00 | 0.00 | 88 | 1009.5 |
| 20260505150416 | 22 | 105 | 3.2 | 6.4 | 0.00 | 0.00 | 0.00 | 88 | 1009.3 |
| 20260505140346 | 22 | 130 | 3.2 | 6.4 | 0.00 | 0.00 | 0.00 | 89 | 1009.2 |
| 20260505130309 | 21 | 160 | 0.0 | 6.4 | 0.00 | 0.00 | 0.00 | 90 | 1008.7 |
| 20260505124759 | 21 | 110 | 6.4 | 8.0 | 0.00 | 0.00 | 0.00 | 90 | 1008.5 |
| 20260505124256 | 21 | 98 | 0.0 | 8.0 | 0.00 | 0.00 | 0.00 | 90 | 1008.4 |
| 20260505123752 | 21 | 134 | 3.2 | 4.8 | 0.00 | 0.00 | 0.00 | 90 | 1008.4 |
| 20260505123249 | 21 | 117 | 3.2 | 9.7 | 0.00 | 0.00 | 0.00 | 90 | 1008.2 |
| 20260505122745 | 21 | 94 | 1.6 | 6.4 | 0.00 | 0.00 | 0.00 | 90 | 1008.1 |
| 20260505122243 | 21 | 88 | 3.2 | 4.8 | 0.00 | 0.00 | 0.00 | 90 | 1008.2 |
| 20260505121739 | 21 | 99 | 3.2 | 4.8 | 0.00 | 0.00 | 0.00 | 90 | 1008.0 |
| 20260505121236 | 21 | 77 | 1.6 | 6.4 | 0.00 | 0.00 | 0.00 | 90 | 1008.0 |
| 20260505120732 | 21 | 76 | 4.8 | 8.0 | 0.00 | 0.00 | 0.00 | 90 | 1007.9 |
| 20260505120228 | 21 | 111 | 4.8 | 6.4 | 0.00 | 0.00 | 0.00 | 89 | 1007.9 |
| 20260505115727 | 21 | 86 | 4.8 | 8.0 | 0.00 | 0.00 | 0.00 | 89 | 1007.8 |
| 20260505115225 | 21 | 142 | 3.2 | 4.8 | 0.00 | 0.00 | 0.00 | 89 | 1007.8 |
| 20260505114722 | 21 | 75 | 4.8 | 6.4 | 0.00 | 0.00 | 0.00 | 89 | 1007.9 |
| 20260505114218 | 21 | 92 | 3.2 | 9.7 | 0.00 | 0.00 | 0.00 | 89 | 1008.0 |
| 20260505113715 | 21 | 57 | 3.2 | 6.4 | 0.00 | 0.00 | 0.00 | 89 | 1007.9 |
| 20260505113211 | 21 | 106 | 3.2 | 4.8 | 0.00 | 0.00 | 0.00 | 89 | 1007.7 |
| 20260505112708 | 21 | 69 | 3.2 | 6.4 | 0.00 | 0.00 | 0.00 | 89 | 1007.9 |
| 20260505112206 | 21 | 128 | 3.2 | 4.8 | 0.00 | 0.00 | 0.00 | 89 | 1007.8 |
| 20260505111705 | 21 | 63 | 1.6 | 4.8 | 0.00 | 0.00 | 0.00 | 89 | 1007.7 |
| 20260505111201 | 21 | 77 | 3.2 | 4.8 | 0.00 | 0.00 | 0.00 | 89 | 1008.0 |
| 20260505110657 | 21 | 78 | 1.6 | 6.4 | 0.00 | 0.00 | 0.00 | 89 | 1008.2 |
| 20260505110155 | 21 | 92 | 3.2 | 4.8 | 0.00 | 0.00 | 0.00 | 89 | 1008.1 |
| 20260505102131 | 21 | 72 | 1.6 | 9.7 | 0.00 | 0.00 | 0.00 | 88 | 1008.0 |
| 20260505101629 | 21 | 56 | 3.2 | 4.8 | 0.00 | 0.00 | 0.00 | 88 | 1008.0 |
| 20260505101125 | 21 | 81 | 3.2 | 6.4 | 0.00 | 0.00 | 0.00 | 88 | 1008.1 |
| 20260505100621 | 21 | 78 | 3.2 | 6.4 | 0.00 | 0.00 | 0.00 | 88 | 1008.0 |
| 20260505100119 | 21 | 100 | 3.2 | 6.4 | 0.00 | 0.00 | 0.00 | 87 | 1008.2 |
| 20260505095614 | 21 | 69 | 3.2 | 4.8 | 0.00 | 0.00 | 0.00 | 87 | 1008.1 |
| 20260505095111 | 21 | 86 | 3.2 | 4.8 | 0.00 | 0.00 | 0.00 | 87 | 1007.8 |
| 20260505094608 | 21 | 104 | 3.2 | 6.4 | 0.00 | 0.00 | 0.00 | 87 | 1008.0 |
| 20260505094104 | 21 | 88 | 4.8 | 4.8 | 0.00 | 0.00 | 0.00 | 87 | 1008.1 |
| 20260505093600 | 21 | 75 | 1.6 | 8.0 | 0.00 | 0.00 | 0.00 | 87 | 1008.0 |
| 20260505093058 | 21 | 73 | 3.2 | 4.8 | 0.00 | 0.00 | 0.00 | 87 | 1008.1 |
| 20260505092555 | 21 | 95 | 3.2 | 4.8 | 0.00 | 0.00 | 0.00 | 87 | 1008.2 |
| 20260505092054 | 21 | 99 | 4.8 | 8.0 | 0.00 | 0.00 | 0.00 | 87 | 1008.1 |
| 20260505091550 | 21 | 99 | 3.2 | 6.4 | 0.00 | 0.00 | 0.00 | 86 | 1007.9 |
| 20260505091049 | 21 | 58 | 3.2 | 6.4 | 0.00 | 0.00 | 0.00 | 86 | 1008.2 |
| 20260505090546 | 21 | 121 | 3.2 | 9.7 | 0.00 | 0.00 | 0.00 | 86 | 1008.4 |
| 20260505090044 | 21 | 95 | 3.2 | 3.2 | 0.00 | 0.00 | 0.00 | 86 | 1008.2 |
| 20260505085541 | 21 | 132 | 3.2 | 6.4 | 0.00 | 0.00 | 0.00 | 86 | 1008.5 |
| 20260505085039 | 21 | 74 | 3.2 | 4.8 | 0.00 | 0.00 | 0.00 | 86 | 1008.1 |
| 20260505084537 | 21 | 76 | 3.2 | 6.4 | 0.00 | 0.00 | 0.00 | 87 | 1008.2 |
| 20260505084035 | 21 | 108 | 3.2 | 4.8 | 0.00 | 0.00 | 0.00 | 87 | 1008.3 |
| 20260505083532 | 21 | 105 | 3.2 | 8.0 | 0.00 | 0.00 | 0.00 | 87 | 1008.3 |
| 20260505083028 | 21 | 44 | 4.8 | 6.4 | 0.00 | 0.00 | 0.00 | 87 | 1008.3 |
| 20260505082524 | 21 | 48 | 1.6 | 12.9 | 0.00 | 0.00 | 0.00 | 87 | 1008.4 |
| 20260505082021 | 21 | 89 | 4.8 | 6.4 | 0.00 | 0.00 | 0.00 | 87 | 1008.8 |
| 20260505081518 | 21 | 83 | 3.2 | 6.4 | 0.00 | 0.00 | 0.00 | 87 | 1008.5 |
| 20260505081015 | 21 | 94 | 4.8 | 8.0 | 0.00 | 0.00 | 0.00 | 87 | 1008.7 |
| 20260505080511 | 21 | 81 | 4.8 | 4.8 | 0.00 | 0.00 | 0.00 | 87 | 1008.8 |
| 20260505080007 | 21 | 99 | 0.0 | 6.4 | 0.00 | 0.00 | 0.00 | 87 | 1009.0 |
| 20260505075504 | 21 | 80 | 3.2 | 3.2 | 0.00 | 0.00 | 0.00 | 86 | 1008.7 |
| 20260505075000 | 21 | 96 | 3.2 | 8.0 | 0.00 | 0.00 | 0.00 | 86 | 1009.0 |
| 20260505074458 | 21 | 74 | 4.8 | 4.8 | 0.00 | 0.00 | 0.00 | 86 | 1009.0 |
| 20260505073955 | 21 | 84 | 4.8 | 6.4 | 0.00 | 0.00 | 0.00 | 86 | 1009.1 |
| 20260505073452 | 21 | 96 | 1.6 | 8.0 | 0.00 | 0.00 | 0.00 | 86 | 1009.1 |
| 20260505072950 | 21 | 89 | 0.0 | 6.4 | 0.00 | 0.00 | 0.00 | 85 | 1009.2 |
| 20260505072446 | 21 | 60 | 4.8 | 4.8 | 0.00 | 0.00 | 0.00 | 86 | 1009.2 |
| 20260505071942 | 21 | 44 | 3.2 | 4.8 | 0.00 | 0.00 | 0.00 | 85 | 1009.1 |
| 20260505071438 | 21 | 108 | 0.0 | 6.4 | 0.00 | 0.00 | 0.00 | 85 | 1009.3 |
| 20260505070936 | 21 | 149 | 0.0 | 4.8 | 0.00 | 0.00 | 0.00 | 85 | 1009.4 |